Weather History for KBBG - July, 2013

Change the Weather History Date:

Tuesday, July 2, 2013

  Actual Average (KHRO) Record (KHRO)
Temperature  
Mean Temperature 70 °F 77 °F  
Max Temperature 80 °F 88 °F 104 °F (1933)
Min Temperature 59 °F 67 °F 47 °F (1924)
Degree Days  
Heating Degree Days 0 0  
Month to date heating degree days 0  
Since 1 June heating degree days 6  
Since 1 July heating degree days 0  
Cooling Degree Days 4 12  
Month to date cooling degree days 24  
Year to date cooling degree days 428  
Since 1 June cooling degree days 289  
Growing Degree Days 20 (Base 50)    
Moisture  
Dew Point 50 °F    
Average Humidity 57    
Maximum Humidity 77    
Minimum Humidity 24    
Precipitation  
Precipitation 0.00 in 0.10 in 4.86 in (1968)
Month to date precipitation 0.20  
Year to date precipitation 22.44  
Snow  
Snow 0.00 in 0.00 in - ()
Month to date snowfall 0.0  
Since 1 June snowfall 0.0  
Since 1 July snowfall 0.0  
Snow Depth -    
Sea Level Pressure  
Sea Level Pressure 30.07 in    
Wind  
Wind Speed 4 mph (NNW)    
Max Wind Speed 14 mph    
Max Gust Speed 20 mph    
Visibility 10 miles    
Events      
T = Trace of Precipitation, MM = Missing Value Source: NWS Daily Summary

Daily Weather History Graph

Daily Weather History Graph

Search for Another Location

Airport or City:

Trip Planner

Search our weather history database for the weather conditions in past years. The results will help you decide how hot, cold, wet, or windy it might be!

Date:

Astronomy

Jul. 02, 2013 Rise Set
Actual Time 5:58 AM CDT 8:34 PM CDT
Civil Twilight 5:28 AM CDT 9:05 PM CDT
Nautical Twilight 4:50 AM CDT 9:42 PM CDT
Astronomical Twilight 4:08 AM CDT 10:24 PM CDT
Moon 1:57 AM CDT (7/2) 3:53 PM CDT (7/2)
Length of Visible Light 15h 36m
Length of Day
14h 36m
Waning Crescent, 26% of the Moon is Illuminated
Jul 2
Waning Crescent
Jul 8
New
Jul 15
First Quarter
Jul 22
Full
Jul 29
Last Quarter

Hourly Weather History & Observations

Time (CDT) Temp. Dew Point Humidity Pressure Visibility Wind Dir Wind Speed Gust Speed Precip Events Conditions
12:15 AM 66.2 °F 51.8 °F 60% 30.06 in 10.0 mi NW 3.5 mph - N/A   Clear
12:35 AM 64.4 °F 51.8 °F 64% 30.05 in 10.0 mi Calm Calm - N/A   Clear
12:55 AM 62.6 °F 51.8 °F 68% 30.05 in 10.0 mi Calm Calm - N/A   Clear
1:15 AM 62.6 °F 51.8 °F 68% 30.05 in 10.0 mi NW 3.5 mph - N/A   Clear
1:35 AM 62.6 °F 50.0 °F 63% 30.05 in 10.0 mi NW 3.5 mph - N/A   Clear
1:55 AM 62.6 °F 50.0 °F 63% 30.04 in 10.0 mi NW 3.5 mph - N/A   Clear
2:15 AM 62.6 °F 50.0 °F 63% 30.04 in 10.0 mi NW 3.5 mph - N/A   Clear
2:35 AM 62.6 °F 50.0 °F 63% 30.04 in 10.0 mi NW 4.6 mph - N/A   Partly Cloudy
2:55 AM 62.6 °F 50.0 °F 63% 30.04 in 10.0 mi NW 3.5 mph - N/A   Scattered Clouds
3:15 AM 62.6 °F 50.0 °F 63% 30.04 in 10.0 mi NW 3.5 mph - N/A   Mostly Cloudy
3:35 AM 60.8 °F 50.0 °F 68% 30.04 in 10.0 mi NW 3.5 mph - N/A   Mostly Cloudy
3:55 AM 60.8 °F 50.0 °F 68% 30.04 in 10.0 mi WNW 3.5 mph - N/A   Overcast
4:15 AM 62.6 °F 50.0 °F 63% 30.04 in 10.0 mi NW 4.6 mph - N/A   Overcast
4:35 AM 60.8 °F 50.0 °F 68% 30.04 in 10.0 mi NW 3.5 mph - N/A   Overcast
4:55 AM 60.8 °F 50.0 °F 68% 30.05 in 10.0 mi NW 3.5 mph - N/A   Overcast
5:15 AM 59.0 °F 50.0 °F 72% 30.05 in 10.0 mi WNW 3.5 mph - N/A   Mostly Cloudy
5:35 AM 59.0 °F 50.0 °F 72% 30.05 in 10.0 mi NW 3.5 mph - N/A   Mostly Cloudy
5:55 AM 60.8 °F 50.0 °F 68% 30.06 in 10.0 mi WNW 3.5 mph - N/A   Partly Cloudy
6:15 AM 59.0 °F 50.0 °F 72% 30.07 in 10.0 mi WNW 4.6 mph - N/A   Clear
6:35 AM 60.8 °F 50.0 °F 68% 30.07 in 10.0 mi Calm Calm - N/A   Clear
6:51 AM 60.8 °F 51.8 °F 72% 30.08 in 10.0 mi Calm Calm - N/A   Partly Cloudy
7:51 AM 62.6 °F 55.4 °F 77% 30.09 in 10.0 mi WNW 4.6 mph - N/A   Partly Cloudy
9:45 AM 68.0 °F 50.0 °F 52% 30.10 in 10.0 mi NNW 8.1 mph - N/A   Clear
10:45 AM 71.6 °F 53.6 °F 53% 30.10 in 10.0 mi NNW 10.4 mph - N/A   Partly Cloudy
11:45 AM 75.2 °F 51.8 °F 44% 30.10 in 10.0 mi NNW 12.7 mph 19.6 mph N/A   Scattered Clouds
12:45 PM 77.0 °F 48.2 °F 36% 30.09 in 10.0 mi NNW 13.8 mph 18.4 mph N/A   Partly Cloudy
1:55 PM 80.6 °F 44.6 °F 28% 30.08 in 10.0 mi NNW 11.5 mph 19.6 mph N/A   Partly Cloudy
2:52 PM 80.6 °F 44.6 °F 28% 30.07 in 10.0 mi North 8.1 mph 18.4 mph N/A   Partly Cloudy
3:45 PM 80.6 °F 41.0 °F 24% 30.07 in 10.0 mi NNE 8.1 mph 19.6 mph N/A   Partly Cloudy
4:45 PM 80.6 °F 46.4 °F 30% 30.06 in 10.0 mi NNE 11.5 mph 17.3 mph N/A   Scattered Clouds
5:50 PM 78.8 °F 48.2 °F 34% 30.06 in 10.0 mi North 11.5 mph 19.6 mph N/A   Scattered Clouds
6:50 PM 75.2 °F 48.2 °F 38% 30.07 in 10.0 mi North 6.9 mph - N/A   Scattered Clouds
7:45 PM 75.2 °F 48.2 °F 38% 30.08 in 10.0 mi NNE 4.6 mph - N/A   Scattered Clouds
8:50 PM 71.6 °F 50.0 °F 46% 30.09 in 10.0 mi NE 3.5 mph - N/A   Scattered Clouds
9:15 PM 69.8 °F 50.0 °F 49% 30.09 in 10.0 mi Calm Calm - N/A   Scattered Clouds
9:35 PM 68.0 °F 50.0 °F 52% 30.09 in 10.0 mi Calm Calm - N/A   Scattered Clouds
9:55 PM 68.0 °F 50.0 °F 52% 30.10 in 10.0 mi Calm Calm - N/A   Clear
10:15 PM 66.2 °F 50.0 °F 56% 30.10 in 10.0 mi Calm Calm - N/A   Clear
10:35 PM 66.2 °F 50.0 °F 56% 30.11 in 10.0 mi Calm Calm - N/A   Clear
10:55 PM 66.2 °F 50.0 °F 56% 30.11 in 10.0 mi Calm Calm - N/A   Clear
11:15 PM 66.2 °F 51.8 °F 60% 30.11 in 10.0 mi Calm Calm - N/A   Clear
11:35 PM 64.4 °F 51.8 °F 64% 30.11 in 10.0 mi Calm Calm - N/A   Clear
11:55 PM 64.4 °F 51.8 °F 64% 30.11 in 10.0 mi Calm Calm - N/A   Clear